Tracking 21094 objects as of 12-Aug-2020
HD Live streaming from Space Station
objects crossing your sky now
Track the most recent launched group of Starlink satellites

SL-8 R/B

Track SL-8 R/B now!
10-day predictions


NORAD ID: 8874
Int'l Code: 1976-051B
Perigee: 971.8 km
Apogee: 1,006.0 km
Inclination: 83.0 °
Period: 104.7 minutes
Semi major axis: 7359 km
RCS: 5.0446 m2 (large)
Launch date: June 2, 1976
Source: Commonwealth of Independent States (former USSR) (CIS)
Launch site: PLESETSK MISSILE AND SPACE COMPLEX (PKMTR)

Note: This is a ROCKET BODY
aabbcc
Your satellite tracking list
Your tracking list is empty




NASA's NSSDC Master Catalog

Two Line Element Set (TLE):
1  8874U 76051B   20224.76164904 +.00000131 +00000-0 +12142-3 0  9991
2  8874 082.9566 232.8914 0023211 324.6536 035.3080 13.74969173216460
Source of the keplerian elements: AFSPC